Back to catalog

METEOSAT 4 AKM

AliveMEO
NORAD 20800·ROCKET BODY·🇪🇺 EU

Launched Mar 6, 1989 from Guiana Space Centre

Loading…

Next Passes (next 24 hours)

TLE

FreshSource: Space-Track

Epoch: Sep 14, 2026, 13:55 UTC

1 20800U 89020E   26257.58026372 -.00000149  00000-0  00000-0 0  9999
2 20800  10.8888 330.7955 0132807 257.9380 137.7080  1.00426363117103

Track METEOSAT 4 AKM in real time with AllMySat

Download on the App Store